Location: Alfortville
(48.8058°N, 2.4204°E)
Time: 04:30:01
(UTC+00:00)

Cosmos 1980 Rocket - Pass Details

Date: 26 May 2022
Orbit: 827 x 851 km, 71.0° (Epoch: 06 July)

Event Time Altitude Azimuth Distance (km) Brightness Sun altitude
Rises 22:06:32 0° 237° (WSW) 3,378 5.3 -16.4°
Reaches altitude 10° 22:09:12 10° 247° (WSW) 2,451 4.6 -16.6°
Maximum altitude 22:14:15 33° 311° (NW) 1,383 3.9 -16.9°
Drops below altitude 10° 22:19:22 10° 15° (NNE) 2,478 5.4 -17.2°
Sets 22:22:06 0° 25° (NNE) 3,420 6.0 -17.4°
